<?xml version="1.0" encoding="UTF-8" standalone="no" ?>
<gpx xmlns="http://www.topografix.com/GPX/1/1" xmlns:xsi="http://www.w3.org/2001/XMLSchema-instance" xsi:schemaLocation="http://www.topografix.com/GPX/1/1 http://www.topografix.com/GPX/1/1/gpx.xsd" version="1.1" creator="VisuGPX - https://www.visugpx.com">
  <metadata>
    <name>Pitelet puy de Montoncel  Arconsat   kms</name>
    <desc><![CDATA[Boucle sportive au depart de pitelet, entre la Guillermie et palladuc  ]]></desc>
  </metadata>
  <trk>
    <name><![CDATA[track]]></name>
    <trkseg>
      <trkpt lat="45.93916" lon="3.63111">
        <ele>782</ele>
        <time>2011-04-10T20:29:23Z</time>
      </trkpt>
      <trkpt lat="45.9391" lon="3.63151">
        <ele>784</ele>
        <time>2011-04-10T20:29:23Z</time>
      </trkpt>
      <trkpt lat="45.93948" lon="3.63238">
        <ele>785</ele>
        <time>2011-04-10T20:29:23Z</time>
      </trkpt>
      <trkpt lat="45.93982" lon="3.63311">
        <ele>793</ele>
        <time>2011-04-10T20:29:23Z</time>
      </trkpt>
      <trkpt lat="45.94037" lon="3.63315">
        <ele>794</ele>
        <time>2011-04-10T20:29:23Z</time>
      </trkpt>
      <trkpt lat="45.94195" lon="3.63224">
        <ele>795</ele>
        <time>2011-04-10T20:29:23Z</time>
      </trkpt>
      <trkpt lat="45.94311" lon="3.63298">
        <ele>813</ele>
        <time>2011-04-10T20:29:23Z</time>
      </trkpt>
      <trkpt lat="45.94343" lon="3.6334">
        <ele>813</ele>
        <time>2011-04-10T20:29:23Z</time>
      </trkpt>
      <trkpt lat="45.94344" lon="3.63379">
        <ele>812</ele>
        <time>2011-04-10T20:29:23Z</time>
      </trkpt>
      <trkpt lat="45.94327" lon="3.63419">
        <ele>818</ele>
        <time>2011-04-10T20:29:23Z</time>
      </trkpt>
      <trkpt lat="45.94311" lon="3.63498">
        <ele>823</ele>
        <time>2011-04-10T20:29:23Z</time>
      </trkpt>
      <trkpt lat="45.94316" lon="3.63607">
        <ele>821</ele>
        <time>2011-04-10T20:29:23Z</time>
      </trkpt>
      <trkpt lat="45.94337" lon="3.63698">
        <ele>830</ele>
        <time>2011-04-10T20:29:23Z</time>
      </trkpt>
      <trkpt lat="45.94391" lon="3.63801">
        <ele>833</ele>
        <time>2011-04-10T20:29:23Z</time>
      </trkpt>
      <trkpt lat="45.94399" lon="3.63854">
        <ele>831</ele>
        <time>2011-04-10T20:29:23Z</time>
      </trkpt>
      <trkpt lat="45.94364" lon="3.63916">
        <ele>833</ele>
        <time>2011-04-10T20:29:23Z</time>
      </trkpt>
      <trkpt lat="45.94315" lon="3.63949">
        <ele>842</ele>
        <time>2011-04-10T20:29:23Z</time>
      </trkpt>
      <trkpt lat="45.94301" lon="3.64038">
        <ele>842</ele>
        <time>2011-04-10T20:29:23Z</time>
      </trkpt>
      <trkpt lat="45.94201" lon="3.6403">
        <ele>863</ele>
        <time>2011-04-10T20:29:23Z</time>
      </trkpt>
      <trkpt lat="45.94158" lon="3.64105">
        <ele>867</ele>
        <time>2011-04-10T20:29:23Z</time>
      </trkpt>
      <trkpt lat="45.94111" lon="3.64139">
        <ele>867</ele>
        <time>2011-04-10T20:29:23Z</time>
      </trkpt>
      <trkpt lat="45.94077" lon="3.6415">
        <ele>870</ele>
        <time>2011-04-10T20:29:23Z</time>
      </trkpt>
      <trkpt lat="45.94093" lon="3.64257">
        <ele>855</ele>
        <time>2011-04-10T20:29:23Z</time>
      </trkpt>
      <trkpt lat="45.94077" lon="3.64398">
        <ele>852</ele>
        <time>2011-04-10T20:29:23Z</time>
      </trkpt>
      <trkpt lat="45.94023" lon="3.64442">
        <ele>862</ele>
        <time>2011-04-10T20:29:23Z</time>
      </trkpt>
      <trkpt lat="45.9396" lon="3.64489">
        <ele>871</ele>
        <time>2011-04-10T20:29:23Z</time>
      </trkpt>
      <trkpt lat="45.93899" lon="3.64566">
        <ele>873</ele>
        <time>2011-04-10T20:29:23Z</time>
      </trkpt>
      <trkpt lat="45.93883" lon="3.64605">
        <ele>871</ele>
        <time>2011-04-10T20:29:23Z</time>
      </trkpt>
      <trkpt lat="45.93907" lon="3.64704">
        <ele>869</ele>
        <time>2011-04-10T20:29:23Z</time>
      </trkpt>
      <trkpt lat="45.93884" lon="3.64742">
        <ele>879</ele>
        <time>2011-04-10T20:29:23Z</time>
      </trkpt>
      <trkpt lat="45.9383" lon="3.64749">
        <ele>895</ele>
        <time>2011-04-10T20:29:23Z</time>
      </trkpt>
      <trkpt lat="45.9373" lon="3.64685">
        <ele>903</ele>
        <time>2011-04-10T20:29:23Z</time>
      </trkpt>
      <trkpt lat="45.93769" lon="3.64795">
        <ele>906</ele>
        <time>2011-04-10T20:29:23Z</time>
      </trkpt>
      <trkpt lat="45.93766" lon="3.64907">
        <ele>907</ele>
        <time>2011-04-10T20:29:23Z</time>
      </trkpt>
      <trkpt lat="45.93736" lon="3.6502">
        <ele>910</ele>
        <time>2011-04-10T20:29:23Z</time>
      </trkpt>
      <trkpt lat="45.93773" lon="3.65102">
        <ele>911</ele>
        <time>2011-04-10T20:29:23Z</time>
      </trkpt>
      <trkpt lat="45.93902" lon="3.65161">
        <ele>914</ele>
        <time>2011-04-10T20:29:23Z</time>
      </trkpt>
      <trkpt lat="45.94068" lon="3.65151">
        <ele>920</ele>
        <time>2011-04-10T20:29:23Z</time>
      </trkpt>
      <trkpt lat="45.94144" lon="3.65106">
        <ele>915</ele>
        <time>2011-04-10T20:29:23Z</time>
      </trkpt>
      <trkpt lat="45.94167" lon="3.65063">
        <ele>909</ele>
        <time>2011-04-10T20:29:23Z</time>
      </trkpt>
      <trkpt lat="45.94279" lon="3.65067">
        <ele>905</ele>
        <time>2011-04-10T20:29:23Z</time>
      </trkpt>
      <trkpt lat="45.94346" lon="3.65054">
        <ele>901</ele>
        <time>2011-04-10T20:29:23Z</time>
      </trkpt>
      <trkpt lat="45.94445" lon="3.64994">
        <ele>899</ele>
        <time>2011-04-10T20:29:23Z</time>
      </trkpt>
      <trkpt lat="45.94534" lon="3.64991">
        <ele>893</ele>
        <time>2011-04-10T20:29:23Z</time>
      </trkpt>
      <trkpt lat="45.94589" lon="3.65028">
        <ele>888</ele>
        <time>2011-04-10T20:29:23Z</time>
      </trkpt>
      <trkpt lat="45.94658" lon="3.65076">
        <ele>874</ele>
        <time>2011-04-10T20:29:23Z</time>
      </trkpt>
      <trkpt lat="45.94695" lon="3.65101">
        <ele>867</ele>
        <time>2011-04-10T20:29:23Z</time>
      </trkpt>
      <trkpt lat="45.94711" lon="3.65018">
        <ele>864</ele>
        <time>2011-04-10T20:29:23Z</time>
      </trkpt>
      <trkpt lat="45.94689" lon="3.64869">
        <ele>866</ele>
        <time>2011-04-10T20:29:23Z</time>
      </trkpt>
      <trkpt lat="45.9467" lon="3.64741">
        <ele>873</ele>
        <time>2011-04-10T20:29:23Z</time>
      </trkpt>
      <trkpt lat="45.9467" lon="3.64651">
        <ele>878</ele>
        <time>2011-04-10T20:29:23Z</time>
      </trkpt>
      <trkpt lat="45.94645" lon="3.64542">
        <ele>870</ele>
        <time>2011-04-10T20:29:23Z</time>
      </trkpt>
      <trkpt lat="45.94693" lon="3.64416">
        <ele>865</ele>
        <time>2011-04-10T20:29:23Z</time>
      </trkpt>
      <trkpt lat="45.9476" lon="3.64368">
        <ele>859</ele>
        <time>2011-04-10T20:29:23Z</time>
      </trkpt>
      <trkpt lat="45.94834" lon="3.64482">
        <ele>868</ele>
        <time>2011-04-10T20:29:23Z</time>
      </trkpt>
      <trkpt lat="45.9492" lon="3.64596">
        <ele>877</ele>
        <time>2011-04-10T20:29:23Z</time>
      </trkpt>
      <trkpt lat="45.94983" lon="3.64644">
        <ele>881</ele>
        <time>2011-04-10T20:29:23Z</time>
      </trkpt>
      <trkpt lat="45.95111" lon="3.64658">
        <ele>880</ele>
        <time>2011-04-10T20:29:23Z</time>
      </trkpt>
      <trkpt lat="45.95179" lon="3.64655">
        <ele>881</ele>
        <time>2011-04-10T20:29:23Z</time>
      </trkpt>
      <trkpt lat="45.95215" lon="3.64651">
        <ele>881</ele>
        <time>2011-04-10T20:29:23Z</time>
      </trkpt>
      <trkpt lat="45.95279" lon="3.64678">
        <ele>887</ele>
        <time>2011-04-10T20:29:23Z</time>
      </trkpt>
      <trkpt lat="45.95328" lon="3.64667">
        <ele>886</ele>
        <time>2011-04-10T20:29:23Z</time>
      </trkpt>
      <trkpt lat="45.95448" lon="3.64632">
        <ele>881</ele>
        <time>2011-04-10T20:29:23Z</time>
      </trkpt>
      <trkpt lat="45.95588" lon="3.6465">
        <ele>886</ele>
        <time>2011-04-10T20:29:23Z</time>
      </trkpt>
      <trkpt lat="45.95729" lon="3.64623">
        <ele>881</ele>
        <time>2011-04-10T20:29:23Z</time>
      </trkpt>
      <trkpt lat="45.95792" lon="3.64584">
        <ele>877</ele>
        <time>2011-04-10T20:29:23Z</time>
      </trkpt>
      <trkpt lat="45.95821" lon="3.64501">
        <ele>879</ele>
        <time>2011-04-10T20:29:23Z</time>
      </trkpt>
      <trkpt lat="45.95827" lon="3.64385">
        <ele>887</ele>
        <time>2011-04-10T20:29:23Z</time>
      </trkpt>
      <trkpt lat="45.95861" lon="3.6426">
        <ele>899</ele>
        <time>2011-04-10T20:29:23Z</time>
      </trkpt>
      <trkpt lat="45.95905" lon="3.6416">
        <ele>900</ele>
        <time>2011-04-10T20:29:23Z</time>
      </trkpt>
      <trkpt lat="45.96056" lon="3.64031">
        <ele>896</ele>
        <time>2011-04-10T20:29:23Z</time>
      </trkpt>
      <trkpt lat="45.96141" lon="3.63955">
        <ele>893</ele>
        <time>2011-04-10T20:29:23Z</time>
      </trkpt>
      <trkpt lat="45.96177" lon="3.6391">
        <ele>891</ele>
        <time>2011-04-10T20:29:23Z</time>
      </trkpt>
      <trkpt lat="45.96294" lon="3.63867">
        <ele>898</ele>
        <time>2011-04-10T20:29:23Z</time>
      </trkpt>
      <trkpt lat="45.9637" lon="3.63804">
        <ele>899</ele>
        <time>2011-04-10T20:29:23Z</time>
      </trkpt>
      <trkpt lat="45.96424" lon="3.63757">
        <ele>904</ele>
        <time>2011-04-10T20:29:23Z</time>
      </trkpt>
      <trkpt lat="45.96562" lon="3.63912">
        <ele>926</ele>
        <time>2011-04-10T20:29:23Z</time>
      </trkpt>
      <trkpt lat="45.96608" lon="3.63986">
        <ele>931</ele>
        <time>2011-04-10T20:29:23Z</time>
      </trkpt>
      <trkpt lat="45.96628" lon="3.6409">
        <ele>939</ele>
        <time>2011-04-10T20:29:23Z</time>
      </trkpt>
      <trkpt lat="45.96698" lon="3.64177">
        <ele>944</ele>
        <time>2011-04-10T20:29:23Z</time>
      </trkpt>
      <trkpt lat="45.96736" lon="3.64324">
        <ele>929</ele>
        <time>2011-04-10T20:29:23Z</time>
      </trkpt>
      <trkpt lat="45.96693" lon="3.64444">
        <ele>925</ele>
        <time>2011-04-10T20:29:23Z</time>
      </trkpt>
      <trkpt lat="45.96606" lon="3.64787">
        <ele>922</ele>
        <time>2011-04-10T20:29:23Z</time>
      </trkpt>
      <trkpt lat="45.96571" lon="3.64935">
        <ele>927</ele>
        <time>2011-04-10T20:29:23Z</time>
      </trkpt>
      <trkpt lat="45.96567" lon="3.65098">
        <ele>927</ele>
        <time>2011-04-10T20:29:23Z</time>
      </trkpt>
      <trkpt lat="45.96584" lon="3.65306">
        <ele>920</ele>
        <time>2011-04-10T20:29:23Z</time>
      </trkpt>
      <trkpt lat="45.96574" lon="3.65479">
        <ele>926</ele>
        <time>2011-04-10T20:29:23Z</time>
      </trkpt>
      <trkpt lat="45.96535" lon="3.65508">
        <ele>932</ele>
        <time>2011-04-10T20:29:23Z</time>
      </trkpt>
      <trkpt lat="45.96481" lon="3.65554">
        <ele>942</ele>
        <time>2011-04-10T20:29:23Z</time>
      </trkpt>
      <trkpt lat="45.96409" lon="3.65575">
        <ele>956</ele>
        <time>2011-04-10T20:29:23Z</time>
      </trkpt>
      <trkpt lat="45.96387" lon="3.6554">
        <ele>963</ele>
        <time>2011-04-10T20:29:23Z</time>
      </trkpt>
      <trkpt lat="45.96405" lon="3.65471">
        <ele>967</ele>
        <time>2011-04-10T20:29:23Z</time>
      </trkpt>
      <trkpt lat="45.96386" lon="3.65411">
        <ele>975</ele>
        <time>2011-04-10T20:29:23Z</time>
      </trkpt>
      <trkpt lat="45.96313" lon="3.65347">
        <ele>984</ele>
        <time>2011-04-10T20:29:23Z</time>
      </trkpt>
      <trkpt lat="45.96241" lon="3.65293">
        <ele>976</ele>
        <time>2011-04-10T20:29:23Z</time>
      </trkpt>
      <trkpt lat="45.96193" lon="3.65308">
        <ele>975</ele>
        <time>2011-04-10T20:29:23Z</time>
      </trkpt>
      <trkpt lat="45.96146" lon="3.65373">
        <ele>981</ele>
        <time>2011-04-10T20:29:23Z</time>
      </trkpt>
      <trkpt lat="45.96097" lon="3.65501">
        <ele>994</ele>
        <time>2011-04-10T20:29:23Z</time>
      </trkpt>
      <trkpt lat="45.96034" lon="3.65522">
        <ele>1000</ele>
        <time>2011-04-10T20:29:23Z</time>
      </trkpt>
      <trkpt lat="45.95953" lon="3.65544">
        <ele>1008</ele>
        <time>2011-04-10T20:29:23Z</time>
      </trkpt>
      <trkpt lat="45.95889" lon="3.65594">
        <ele>1013</ele>
        <time>2011-04-10T20:29:23Z</time>
      </trkpt>
      <trkpt lat="45.95834" lon="3.6563">
        <ele>1017</ele>
        <time>2011-04-10T20:29:23Z</time>
      </trkpt>
      <trkpt lat="45.95748" lon="3.65675">
        <ele>1026</ele>
        <time>2011-04-10T20:29:23Z</time>
      </trkpt>
      <trkpt lat="45.95692" lon="3.65709">
        <ele>1031</ele>
        <time>2011-04-10T20:29:23Z</time>
      </trkpt>
      <trkpt lat="45.95636" lon="3.65783">
        <ele>1034</ele>
        <time>2011-04-10T20:29:23Z</time>
      </trkpt>
      <trkpt lat="45.95609" lon="3.6587">
        <ele>1035</ele>
        <time>2011-04-10T20:29:23Z</time>
      </trkpt>
      <trkpt lat="45.95598" lon="3.6596">
        <ele>1035</ele>
        <time>2011-04-10T20:29:23Z</time>
      </trkpt>
      <trkpt lat="45.95608" lon="3.66059">
        <ele>1039</ele>
        <time>2011-04-10T20:29:23Z</time>
      </trkpt>
      <trkpt lat="45.95619" lon="3.66139">
        <ele>1042</ele>
        <time>2011-04-10T20:29:23Z</time>
      </trkpt>
      <trkpt lat="45.95638" lon="3.66242">
        <ele>1044</ele>
        <time>2011-04-10T20:29:23Z</time>
      </trkpt>
      <trkpt lat="45.95682" lon="3.66275">
        <ele>1047</ele>
        <time>2011-04-10T20:29:23Z</time>
      </trkpt>
      <trkpt lat="45.95734" lon="3.66344">
        <ele>1051</ele>
        <time>2011-04-10T20:29:23Z</time>
      </trkpt>
      <trkpt lat="45.95731" lon="3.664">
        <ele>1051</ele>
        <time>2011-04-10T20:29:23Z</time>
      </trkpt>
      <trkpt lat="45.95706" lon="3.66554">
        <ele>1054</ele>
        <time>2011-04-10T20:29:23Z</time>
      </trkpt>
      <trkpt lat="45.95772" lon="3.66593">
        <ele>1060</ele>
        <time>2011-04-10T20:29:23Z</time>
      </trkpt>
      <trkpt lat="45.95898" lon="3.6658">
        <ele>1068</ele>
        <time>2011-04-10T20:29:23Z</time>
      </trkpt>
      <trkpt lat="45.96018" lon="3.66626">
        <ele>1077</ele>
        <time>2011-04-10T20:29:23Z</time>
      </trkpt>
      <trkpt lat="45.96095" lon="3.66662">
        <ele>1081</ele>
        <time>2011-04-10T20:29:23Z</time>
      </trkpt>
      <trkpt lat="45.96169" lon="3.66699">
        <ele>1083</ele>
        <time>2011-04-10T20:29:23Z</time>
      </trkpt>
      <trkpt lat="45.96115" lon="3.66751">
        <ele>1093</ele>
        <time>2011-04-10T20:29:23Z</time>
      </trkpt>
      <trkpt lat="45.9605" lon="3.66858">
        <ele>1101</ele>
        <time>2011-04-10T20:29:23Z</time>
      </trkpt>
      <trkpt lat="45.95984" lon="3.66997">
        <ele>1108</ele>
        <time>2011-04-10T20:29:23Z</time>
      </trkpt>
      <trkpt lat="45.95906" lon="3.67127">
        <ele>1115</ele>
        <time>2011-04-10T20:29:23Z</time>
      </trkpt>
      <trkpt lat="45.95832" lon="3.67369">
        <ele>1134</ele>
        <time>2011-04-10T20:29:23Z</time>
      </trkpt>
      <trkpt lat="45.95746" lon="3.67546">
        <ele>1148</ele>
        <time>2011-04-10T20:29:23Z</time>
      </trkpt>
      <trkpt lat="45.95657" lon="3.67676">
        <ele>1158</ele>
        <time>2011-04-10T20:29:23Z</time>
      </trkpt>
      <trkpt lat="45.95562" lon="3.67723">
        <ele>1164</ele>
        <time>2011-04-10T20:29:23Z</time>
      </trkpt>
      <trkpt lat="45.95482" lon="3.678">
        <ele>1169</ele>
        <time>2011-04-10T20:29:23Z</time>
      </trkpt>
      <trkpt lat="45.95416" lon="3.67854">
        <ele>1169</ele>
        <time>2011-04-10T20:29:23Z</time>
      </trkpt>
      <trkpt lat="45.95342" lon="3.67876">
        <ele>1171</ele>
        <time>2011-04-10T20:29:23Z</time>
      </trkpt>
      <trkpt lat="45.9525" lon="3.67987">
        <ele>1170</ele>
        <time>2011-04-10T20:29:23Z</time>
      </trkpt>
      <trkpt lat="45.95154" lon="3.68058">
        <ele>1172</ele>
        <time>2011-04-10T20:29:23Z</time>
      </trkpt>
      <trkpt lat="45.95087" lon="3.68107">
        <ele>1174</ele>
        <time>2011-04-10T20:29:23Z</time>
      </trkpt>
      <trkpt lat="45.94991" lon="3.68146">
        <ele>1170</ele>
        <time>2011-04-10T20:29:23Z</time>
      </trkpt>
      <trkpt lat="45.94858" lon="3.68135">
        <ele>1160</ele>
        <time>2011-04-10T20:29:23Z</time>
      </trkpt>
      <trkpt lat="45.94789" lon="3.68114">
        <ele>1155</ele>
        <time>2011-04-10T20:29:23Z</time>
      </trkpt>
      <trkpt lat="45.94722" lon="3.68114">
        <ele>1150</ele>
        <time>2011-04-10T20:29:23Z</time>
      </trkpt>
      <trkpt lat="45.94675" lon="3.6814">
        <ele>1147</ele>
        <time>2011-04-10T20:29:23Z</time>
      </trkpt>
      <trkpt lat="45.94574" lon="3.68175">
        <ele>1147</ele>
        <time>2011-04-10T20:29:23Z</time>
      </trkpt>
      <trkpt lat="45.94494" lon="3.68141">
        <ele>1148</ele>
        <time>2011-04-10T20:29:23Z</time>
      </trkpt>
      <trkpt lat="45.94435" lon="3.68128">
        <ele>1148</ele>
        <time>2011-04-10T20:29:23Z</time>
      </trkpt>
      <trkpt lat="45.94339" lon="3.68201">
        <ele>1145</ele>
        <time>2011-04-10T20:29:23Z</time>
      </trkpt>
      <trkpt lat="45.94294" lon="3.68349">
        <ele>1146</ele>
        <time>2011-04-10T20:29:23Z</time>
      </trkpt>
      <trkpt lat="45.94221" lon="3.68553">
        <ele>1156</ele>
        <time>2011-04-10T20:29:23Z</time>
      </trkpt>
      <trkpt lat="45.94136" lon="3.68672">
        <ele>1163</ele>
        <time>2011-04-10T20:29:23Z</time>
      </trkpt>
      <trkpt lat="45.94058" lon="3.68767">
        <ele>1165</ele>
        <time>2011-04-10T20:29:23Z</time>
      </trkpt>
      <trkpt lat="45.94002" lon="3.68844">
        <ele>1170</ele>
        <time>2011-04-10T20:29:23Z</time>
      </trkpt>
      <trkpt lat="45.93861" lon="3.68904">
        <ele>1177</ele>
        <time>2011-04-10T20:29:23Z</time>
      </trkpt>
      <trkpt lat="45.93757" lon="3.68969">
        <ele>1186</ele>
        <time>2011-04-10T20:29:23Z</time>
      </trkpt>
      <trkpt lat="45.93702" lon="3.69035">
        <ele>1189</ele>
        <time>2011-04-10T20:29:23Z</time>
      </trkpt>
      <trkpt lat="45.93558" lon="3.68982">
        <ele>1195</ele>
        <time>2011-04-10T20:29:23Z</time>
      </trkpt>
      <trkpt lat="45.93472" lon="3.6903">
        <ele>1205</ele>
        <time>2011-04-10T20:29:23Z</time>
      </trkpt>
      <trkpt lat="45.93354" lon="3.69133">
        <ele>1233</ele>
        <time>2011-04-10T20:29:23Z</time>
      </trkpt>
      <trkpt lat="45.93292" lon="3.6922">
        <ele>1250</ele>
        <time>2011-04-10T20:29:23Z</time>
      </trkpt>
      <trkpt lat="45.93221" lon="3.69301">
        <ele>1264</ele>
        <time>2011-04-10T20:29:23Z</time>
      </trkpt>
      <trkpt lat="45.93142" lon="3.69371">
        <ele>1280</ele>
        <time>2011-04-10T20:29:23Z</time>
      </trkpt>
      <trkpt lat="45.93092" lon="3.69397">
        <ele>1284</ele>
        <time>2011-04-10T20:29:23Z</time>
      </trkpt>
      <trkpt lat="45.93003" lon="3.69382">
        <ele>1274</ele>
        <time>2011-04-10T20:29:23Z</time>
      </trkpt>
      <trkpt lat="45.92954" lon="3.69383">
        <ele>1260</ele>
        <time>2011-04-10T20:29:23Z</time>
      </trkpt>
      <trkpt lat="45.92905" lon="3.69394">
        <ele>1244</ele>
        <time>2011-04-10T20:29:23Z</time>
      </trkpt>
      <trkpt lat="45.92852" lon="3.69325">
        <ele>1225</ele>
        <time>2011-04-10T20:29:23Z</time>
      </trkpt>
      <trkpt lat="45.92787" lon="3.69329">
        <ele>1212</ele>
        <time>2011-04-10T20:29:23Z</time>
      </trkpt>
      <trkpt lat="45.92715" lon="3.69332">
        <ele>1204</ele>
        <time>2011-04-10T20:29:23Z</time>
      </trkpt>
      <trkpt lat="45.92711" lon="3.69422">
        <ele>1204</ele>
        <time>2011-04-10T20:29:23Z</time>
      </trkpt>
      <trkpt lat="45.92728" lon="3.6953">
        <ele>1196</ele>
        <time>2011-04-10T20:29:23Z</time>
      </trkpt>
      <trkpt lat="45.92787" lon="3.69636">
        <ele>1195</ele>
        <time>2011-04-10T20:29:23Z</time>
      </trkpt>
      <trkpt lat="45.92817" lon="3.69713">
        <ele>1196</ele>
        <time>2011-04-10T20:29:23Z</time>
      </trkpt>
      <trkpt lat="45.92824" lon="3.69832">
        <ele>1195</ele>
        <time>2011-04-10T20:29:23Z</time>
      </trkpt>
      <trkpt lat="45.92839" lon="3.69926">
        <ele>1192</ele>
        <time>2011-04-10T20:29:23Z</time>
      </trkpt>
      <trkpt lat="45.92877" lon="3.70055">
        <ele>1180</ele>
        <time>2011-04-10T20:29:23Z</time>
      </trkpt>
      <trkpt lat="45.92865" lon="3.70188">
        <ele>1176</ele>
        <time>2011-04-10T20:29:23Z</time>
      </trkpt>
      <trkpt lat="45.92842" lon="3.70283">
        <ele>1169</ele>
        <time>2011-04-10T20:29:23Z</time>
      </trkpt>
      <trkpt lat="45.92818" lon="3.7043">
        <ele>1160</ele>
        <time>2011-04-10T20:29:23Z</time>
      </trkpt>
      <trkpt lat="45.92842" lon="3.70574">
        <ele>1170</ele>
        <time>2011-04-10T20:29:23Z</time>
      </trkpt>
      <trkpt lat="45.92861" lon="3.70683">
        <ele>1173</ele>
        <time>2011-04-10T20:29:23Z</time>
      </trkpt>
      <trkpt lat="45.92854" lon="3.70768">
        <ele>1173</ele>
        <time>2011-04-10T20:29:23Z</time>
      </trkpt>
      <trkpt lat="45.92765" lon="3.70872">
        <ele>1172</ele>
        <time>2011-04-10T20:29:23Z</time>
      </trkpt>
      <trkpt lat="45.9266" lon="3.70973">
        <ele>1172</ele>
        <time>2011-04-10T20:29:23Z</time>
      </trkpt>
      <trkpt lat="45.92613" lon="3.71068">
        <ele>1173</ele>
        <time>2011-04-10T20:29:23Z</time>
      </trkpt>
      <trkpt lat="45.92562" lon="3.71183">
        <ele>1173</ele>
        <time>2011-04-10T20:29:23Z</time>
      </trkpt>
      <trkpt lat="45.92522" lon="3.71377">
        <ele>1170</ele>
        <time>2011-04-10T20:29:23Z</time>
      </trkpt>
      <trkpt lat="45.9246" lon="3.715">
        <ele>1160</ele>
        <time>2011-04-10T20:29:23Z</time>
      </trkpt>
      <trkpt lat="45.92431" lon="3.71568">
        <ele>1153</ele>
        <time>2011-04-10T20:29:23Z</time>
      </trkpt>
      <trkpt lat="45.9241" lon="3.71745">
        <ele>1139</ele>
        <time>2011-04-10T20:29:23Z</time>
      </trkpt>
      <trkpt lat="45.92391" lon="3.71899">
        <ele>1127</ele>
        <time>2011-04-10T20:29:23Z</time>
      </trkpt>
      <trkpt lat="45.92312" lon="3.72068">
        <ele>1117</ele>
        <time>2011-04-10T20:29:23Z</time>
      </trkpt>
      <trkpt lat="45.92272" lon="3.72164">
        <ele>1117</ele>
        <time>2011-04-10T20:29:23Z</time>
      </trkpt>
      <trkpt lat="45.92229" lon="3.72272">
        <ele>1122</ele>
        <time>2011-04-10T20:29:23Z</time>
      </trkpt>
      <trkpt lat="45.92183" lon="3.72345">
        <ele>1122</ele>
        <time>2011-04-10T20:29:23Z</time>
      </trkpt>
      <trkpt lat="45.92113" lon="3.72466">
        <ele>1113</ele>
        <time>2011-04-10T20:29:23Z</time>
      </trkpt>
      <trkpt lat="45.92044" lon="3.72488">
        <ele>1108</ele>
        <time>2011-04-10T20:29:23Z</time>
      </trkpt>
      <trkpt lat="45.91948" lon="3.72529">
        <ele>1109</ele>
        <time>2011-04-10T20:29:23Z</time>
      </trkpt>
      <trkpt lat="45.91876" lon="3.7256">
        <ele>1109</ele>
        <time>2011-04-10T20:29:23Z</time>
      </trkpt>
      <trkpt lat="45.91788" lon="3.72612">
        <ele>1106</ele>
        <time>2011-04-10T20:29:23Z</time>
      </trkpt>
      <trkpt lat="45.91673" lon="3.72643">
        <ele>1099</ele>
        <time>2011-04-10T20:29:23Z</time>
      </trkpt>
      <trkpt lat="45.91593" lon="3.72659">
        <ele>1093</ele>
        <time>2011-04-10T20:29:23Z</time>
      </trkpt>
      <trkpt lat="45.91514" lon="3.72678">
        <ele>1087</ele>
        <time>2011-04-10T20:29:23Z</time>
      </trkpt>
      <trkpt lat="45.91502" lon="3.72784">
        <ele>1089</ele>
        <time>2011-04-10T20:29:23Z</time>
      </trkpt>
      <trkpt lat="45.91467" lon="3.72825">
        <ele>1087</ele>
        <time>2011-04-10T20:29:23Z</time>
      </trkpt>
      <trkpt lat="45.91434" lon="3.72887">
        <ele>1088</ele>
        <time>2011-04-10T20:29:23Z</time>
      </trkpt>
      <trkpt lat="45.91252" lon="3.73003">
        <ele>1097</ele>
        <time>2011-04-10T20:29:23Z</time>
      </trkpt>
      <trkpt lat="45.91197" lon="3.73107">
        <ele>1104</ele>
        <time>2011-04-10T20:29:23Z</time>
      </trkpt>
      <trkpt lat="45.91115" lon="3.73296">
        <ele>1106</ele>
        <time>2011-04-10T20:29:23Z</time>
      </trkpt>
      <trkpt lat="45.91028" lon="3.73402">
        <ele>1110</ele>
        <time>2011-04-10T20:29:23Z</time>
      </trkpt>
      <trkpt lat="45.9098" lon="3.73481">
        <ele>1117</ele>
        <time>2011-04-10T20:29:23Z</time>
      </trkpt>
      <trkpt lat="45.90953" lon="3.73605">
        <ele>1127</ele>
        <time>2011-04-10T20:29:23Z</time>
      </trkpt>
      <trkpt lat="45.90886" lon="3.73711">
        <ele>1140</ele>
        <time>2011-04-10T20:29:23Z</time>
      </trkpt>
      <trkpt lat="45.90763" lon="3.73777">
        <ele>1153</ele>
        <time>2011-04-10T20:29:23Z</time>
      </trkpt>
      <trkpt lat="45.90658" lon="3.73776">
        <ele>1160</ele>
        <time>2011-04-10T20:29:23Z</time>
      </trkpt>
      <trkpt lat="45.90472" lon="3.73832">
        <ele>1171</ele>
        <time>2011-04-10T20:29:23Z</time>
      </trkpt>
      <trkpt lat="45.90427" lon="3.73806">
        <ele>1173</ele>
        <time>2011-04-10T20:29:23Z</time>
      </trkpt>
      <trkpt lat="45.90376" lon="3.73767">
        <ele>1174</ele>
        <time>2011-04-10T20:29:23Z</time>
      </trkpt>
      <trkpt lat="45.90297" lon="3.73785">
        <ele>1181</ele>
        <time>2011-04-10T20:29:23Z</time>
      </trkpt>
      <trkpt lat="45.90186" lon="3.7382">
        <ele>1188</ele>
        <time>2011-04-10T20:29:23Z</time>
      </trkpt>
      <trkpt lat="45.90088" lon="3.73853">
        <ele>1189</ele>
        <time>2011-04-10T20:29:23Z</time>
      </trkpt>
      <trkpt lat="45.90047" lon="3.73886">
        <ele>1187</ele>
        <time>2011-04-10T20:29:23Z</time>
      </trkpt>
      <trkpt lat="45.90059" lon="3.73952">
        <ele>1187</ele>
        <time>2011-04-10T20:29:23Z</time>
      </trkpt>
      <trkpt lat="45.90126" lon="3.74149">
        <ele>1178</ele>
        <time>2011-04-10T20:29:23Z</time>
      </trkpt>
      <trkpt lat="45.90153" lon="3.74327">
        <ele>1153</ele>
        <time>2011-04-10T20:29:23Z</time>
      </trkpt>
      <trkpt lat="45.90134" lon="3.74391">
        <ele>1147</ele>
        <time>2011-04-10T20:29:23Z</time>
      </trkpt>
      <trkpt lat="45.90051" lon="3.74516">
        <ele>1135</ele>
        <time>2011-04-10T20:29:23Z</time>
      </trkpt>
      <trkpt lat="45.8996" lon="3.74599">
        <ele>1124</ele>
        <time>2011-04-10T20:29:23Z</time>
      </trkpt>
      <trkpt lat="45.89875" lon="3.74707">
        <ele>1114</ele>
        <time>2011-04-10T20:29:23Z</time>
      </trkpt>
      <trkpt lat="45.89818" lon="3.7479">
        <ele>1104</ele>
        <time>2011-04-10T20:29:23Z</time>
      </trkpt>
      <trkpt lat="45.89695" lon="3.74869">
        <ele>1081</ele>
        <time>2011-04-10T20:29:23Z</time>
      </trkpt>
      <trkpt lat="45.89532" lon="3.74975">
        <ele>1046</ele>
        <time>2011-04-10T20:29:23Z</time>
      </trkpt>
      <trkpt lat="45.89418" lon="3.75031">
        <ele>1026</ele>
        <time>2011-04-10T20:29:23Z</time>
      </trkpt>
      <trkpt lat="45.89293" lon="3.75077">
        <ele>1009</ele>
        <time>2011-04-10T20:29:23Z</time>
      </trkpt>
      <trkpt lat="45.89208" lon="3.7509">
        <ele>996</ele>
        <time>2011-04-10T20:29:23Z</time>
      </trkpt>
      <trkpt lat="45.89119" lon="3.75146">
        <ele>984</ele>
        <time>2011-04-10T20:29:23Z</time>
      </trkpt>
      <trkpt lat="45.8913" lon="3.75064">
        <ele>986</ele>
        <time>2011-04-10T20:29:23Z</time>
      </trkpt>
      <trkpt lat="45.89194" lon="3.74976">
        <ele>981</ele>
        <time>2011-04-10T20:29:23Z</time>
      </trkpt>
      <trkpt lat="45.89202" lon="3.74874">
        <ele>966</ele>
        <time>2011-04-10T20:29:23Z</time>
      </trkpt>
      <trkpt lat="45.89206" lon="3.74773">
        <ele>944</ele>
        <time>2011-04-10T20:29:23Z</time>
      </trkpt>
      <trkpt lat="45.89226" lon="3.74632">
        <ele>919</ele>
        <time>2011-04-10T20:29:23Z</time>
      </trkpt>
      <trkpt lat="45.89233" lon="3.74556">
        <ele>916</ele>
        <time>2011-04-10T20:29:23Z</time>
      </trkpt>
      <trkpt lat="45.8917" lon="3.745">
        <ele>917</ele>
        <time>2011-04-10T20:29:23Z</time>
      </trkpt>
      <trkpt lat="45.89139" lon="3.74427">
        <ele>919</ele>
        <time>2011-04-10T20:29:23Z</time>
      </trkpt>
      <trkpt lat="45.89159" lon="3.74326">
        <ele>920</ele>
        <time>2011-04-10T20:29:23Z</time>
      </trkpt>
      <trkpt lat="45.8918" lon="3.74205">
        <ele>917</ele>
        <time>2011-04-10T20:29:23Z</time>
      </trkpt>
      <trkpt lat="45.89168" lon="3.741">
        <ele>917</ele>
        <time>2011-04-10T20:29:23Z</time>
      </trkpt>
      <trkpt lat="45.8906" lon="3.73938">
        <ele>932</ele>
        <time>2011-04-10T20:29:23Z</time>
      </trkpt>
      <trkpt lat="45.89004" lon="3.73779">
        <ele>928</ele>
        <time>2011-04-10T20:29:23Z</time>
      </trkpt>
      <trkpt lat="45.88984" lon="3.73614">
        <ele>911</ele>
        <time>2011-04-10T20:29:23Z</time>
      </trkpt>
      <trkpt lat="45.8895" lon="3.73534">
        <ele>896</ele>
        <time>2011-04-10T20:29:23Z</time>
      </trkpt>
      <trkpt lat="45.88888" lon="3.73385">
        <ele>874</ele>
        <time>2011-04-10T20:29:23Z</time>
      </trkpt>
      <trkpt lat="45.88803" lon="3.7321">
        <ele>852</ele>
        <time>2011-04-10T20:29:23Z</time>
      </trkpt>
      <trkpt lat="45.88734" lon="3.73039">
        <ele>838</ele>
        <time>2011-04-10T20:29:23Z</time>
      </trkpt>
      <trkpt lat="45.88668" lon="3.73005">
        <ele>830</ele>
        <time>2011-04-10T20:29:23Z</time>
      </trkpt>
      <trkpt lat="45.88573" lon="3.72935">
        <ele>821</ele>
        <time>2011-04-10T20:29:23Z</time>
      </trkpt>
      <trkpt lat="45.88505" lon="3.72921">
        <ele>812</ele>
        <time>2011-04-10T20:29:23Z</time>
      </trkpt>
      <trkpt lat="45.88447" lon="3.7288">
        <ele>802</ele>
        <time>2011-04-10T20:29:23Z</time>
      </trkpt>
      <trkpt lat="45.88438" lon="3.72826">
        <ele>799</ele>
        <time>2011-04-10T20:29:23Z</time>
      </trkpt>
      <trkpt lat="45.8842" lon="3.72743">
        <ele>790</ele>
        <time>2011-04-10T20:29:23Z</time>
      </trkpt>
      <trkpt lat="45.88377" lon="3.72716">
        <ele>784</ele>
        <time>2011-04-10T20:29:23Z</time>
      </trkpt>
      <trkpt lat="45.88458" lon="3.72602">
        <ele>778</ele>
        <time>2011-04-10T20:29:23Z</time>
      </trkpt>
      <trkpt lat="45.88518" lon="3.72515">
        <ele>771</ele>
        <time>2011-04-10T20:29:23Z</time>
      </trkpt>
      <trkpt lat="45.88512" lon="3.7242">
        <ele>772</ele>
        <time>2011-04-10T20:29:23Z</time>
      </trkpt>
      <trkpt lat="45.88555" lon="3.72266">
        <ele>774</ele>
        <time>2011-04-10T20:29:23Z</time>
      </trkpt>
      <trkpt lat="45.8862" lon="3.72117">
        <ele>773</ele>
        <time>2011-04-10T20:29:23Z</time>
      </trkpt>
      <trkpt lat="45.88674" lon="3.72018">
        <ele>773</ele>
        <time>2011-04-10T20:29:23Z</time>
      </trkpt>
      <trkpt lat="45.88704" lon="3.71879">
        <ele>771</ele>
        <time>2011-04-10T20:29:23Z</time>
      </trkpt>
      <trkpt lat="45.88743" lon="3.71764">
        <ele>774</ele>
        <time>2011-04-10T20:29:23Z</time>
      </trkpt>
      <trkpt lat="45.88825" lon="3.71585">
        <ele>774</ele>
        <time>2011-04-10T20:29:23Z</time>
      </trkpt>
      <trkpt lat="45.88863" lon="3.7147">
        <ele>776</ele>
        <time>2011-04-10T20:29:23Z</time>
      </trkpt>
      <trkpt lat="45.88841" lon="3.71351">
        <ele>774</ele>
        <time>2011-04-10T20:29:23Z</time>
      </trkpt>
      <trkpt lat="45.88828" lon="3.71308">
        <ele>773</ele>
        <time>2011-04-10T20:29:23Z</time>
      </trkpt>
      <trkpt lat="45.88829" lon="3.71246">
        <ele>772</ele>
        <time>2011-04-10T20:29:23Z</time>
      </trkpt>
      <trkpt lat="45.8886" lon="3.71156">
        <ele>768</ele>
        <time>2011-04-10T20:29:23Z</time>
      </trkpt>
      <trkpt lat="45.88931" lon="3.71057">
        <ele>764</ele>
        <time>2011-04-10T20:29:23Z</time>
      </trkpt>
      <trkpt lat="45.88967" lon="3.7099">
        <ele>759</ele>
        <time>2011-04-10T20:29:23Z</time>
      </trkpt>
      <trkpt lat="45.88965" lon="3.70943">
        <ele>756</ele>
        <time>2011-04-10T20:29:23Z</time>
      </trkpt>
      <trkpt lat="45.88916" lon="3.70895">
        <ele>753</ele>
        <time>2011-04-10T20:29:23Z</time>
      </trkpt>
      <trkpt lat="45.88848" lon="3.70819">
        <ele>745</ele>
        <time>2011-04-10T20:29:23Z</time>
      </trkpt>
      <trkpt lat="45.88824" lon="3.70692">
        <ele>738</ele>
        <time>2011-04-10T20:29:23Z</time>
      </trkpt>
      <trkpt lat="45.88838" lon="3.70605">
        <ele>739</ele>
        <time>2011-04-10T20:29:23Z</time>
      </trkpt>
      <trkpt lat="45.888" lon="3.70577">
        <ele>730</ele>
        <time>2011-04-10T20:29:23Z</time>
      </trkpt>
      <trkpt lat="45.88761" lon="3.7046">
        <ele>716</ele>
        <time>2011-04-10T20:29:23Z</time>
      </trkpt>
      <trkpt lat="45.88737" lon="3.70446">
        <ele>712</ele>
        <time>2011-04-10T20:29:23Z</time>
      </trkpt>
      <trkpt lat="45.88714" lon="3.7046">
        <ele>710</ele>
        <time>2011-04-10T20:29:23Z</time>
      </trkpt>
      <trkpt lat="45.8868" lon="3.7053">
        <ele>704</ele>
        <time>2011-04-10T20:29:23Z</time>
      </trkpt>
      <trkpt lat="45.88541" lon="3.7044">
        <ele>695</ele>
        <time>2011-04-10T20:29:23Z</time>
      </trkpt>
      <trkpt lat="45.88346" lon="3.70269">
        <ele>674</ele>
        <time>2011-04-10T20:29:23Z</time>
      </trkpt>
      <trkpt lat="45.88268" lon="3.70112">
        <ele>662</ele>
        <time>2011-04-10T20:29:23Z</time>
      </trkpt>
      <trkpt lat="45.88181" lon="3.69907">
        <ele>637</ele>
        <time>2011-04-10T20:29:23Z</time>
      </trkpt>
      <trkpt lat="45.88151" lon="3.69829">
        <ele>633</ele>
        <time>2011-04-10T20:29:23Z</time>
      </trkpt>
      <trkpt lat="45.88166" lon="3.69778">
        <ele>630</ele>
        <time>2011-04-10T20:29:23Z</time>
      </trkpt>
      <trkpt lat="45.88239" lon="3.69794">
        <ele>634</ele>
        <time>2011-04-10T20:29:23Z</time>
      </trkpt>
      <trkpt lat="45.88362" lon="3.69743">
        <ele>638</ele>
        <time>2011-04-10T20:29:23Z</time>
      </trkpt>
      <trkpt lat="45.88513" lon="3.69759">
        <ele>648</ele>
        <time>2011-04-10T20:29:23Z</time>
      </trkpt>
      <trkpt lat="45.88577" lon="3.69764">
        <ele>650</ele>
        <time>2011-04-10T20:29:23Z</time>
      </trkpt>
      <trkpt lat="45.88632" lon="3.69762">
        <ele>652</ele>
        <time>2011-04-10T20:29:23Z</time>
      </trkpt>
      <trkpt lat="45.88674" lon="3.69704">
        <ele>649</ele>
        <time>2011-04-10T20:29:23Z</time>
      </trkpt>
      <trkpt lat="45.88674" lon="3.69638">
        <ele>644</ele>
        <time>2011-04-10T20:29:23Z</time>
      </trkpt>
      <trkpt lat="45.88669" lon="3.6958">
        <ele>641</ele>
        <time>2011-04-10T20:29:23Z</time>
      </trkpt>
      <trkpt lat="45.88703" lon="3.69479">
        <ele>645</ele>
        <time>2011-04-10T20:29:23Z</time>
      </trkpt>
      <trkpt lat="45.88727" lon="3.69423">
        <ele>653</ele>
        <time>2011-04-10T20:29:23Z</time>
      </trkpt>
      <trkpt lat="45.88651" lon="3.69433">
        <ele>648</ele>
        <time>2011-04-10T20:29:23Z</time>
      </trkpt>
      <trkpt lat="45.88592" lon="3.69415">
        <ele>653</ele>
        <time>2011-04-10T20:29:23Z</time>
      </trkpt>
      <trkpt lat="45.88563" lon="3.69401">
        <ele>659</ele>
        <time>2011-04-10T20:29:23Z</time>
      </trkpt>
      <trkpt lat="45.88535" lon="3.69362">
        <ele>668</ele>
        <time>2011-04-10T20:29:23Z</time>
      </trkpt>
      <trkpt lat="45.88517" lon="3.69336">
        <ele>669</ele>
        <time>2011-04-10T20:29:23Z</time>
      </trkpt>
      <trkpt lat="45.88547" lon="3.69269">
        <ele>671</ele>
        <time>2011-04-10T20:29:23Z</time>
      </trkpt>
      <trkpt lat="45.88648" lon="3.69236">
        <ele>673</ele>
        <time>2011-04-10T20:29:23Z</time>
      </trkpt>
      <trkpt lat="45.8871" lon="3.69202">
        <ele>677</ele>
        <time>2011-04-10T20:29:23Z</time>
      </trkpt>
      <trkpt lat="45.88743" lon="3.69148">
        <ele>682</ele>
        <time>2011-04-10T20:29:23Z</time>
      </trkpt>
      <trkpt lat="45.88791" lon="3.69027">
        <ele>690</ele>
        <time>2011-04-10T20:29:23Z</time>
      </trkpt>
      <trkpt lat="45.88773" lon="3.68906">
        <ele>694</ele>
        <time>2011-04-10T20:29:23Z</time>
      </trkpt>
      <trkpt lat="45.88762" lon="3.68785">
        <ele>696</ele>
        <time>2011-04-10T20:29:23Z</time>
      </trkpt>
      <trkpt lat="45.8878" lon="3.68656">
        <ele>695</ele>
        <time>2011-04-10T20:29:23Z</time>
      </trkpt>
      <trkpt lat="45.88848" lon="3.68473">
        <ele>694</ele>
        <time>2011-04-10T20:29:23Z</time>
      </trkpt>
      <trkpt lat="45.88906" lon="3.68345">
        <ele>683</ele>
        <time>2011-04-10T20:29:23Z</time>
      </trkpt>
      <trkpt lat="45.88954" lon="3.68308">
        <ele>675</ele>
        <time>2011-04-10T20:29:23Z</time>
      </trkpt>
      <trkpt lat="45.89018" lon="3.68303">
        <ele>672</ele>
        <time>2011-04-10T20:29:23Z</time>
      </trkpt>
      <trkpt lat="45.89076" lon="3.68282">
        <ele>668</ele>
        <time>2011-04-10T20:29:23Z</time>
      </trkpt>
      <trkpt lat="45.89191" lon="3.68283">
        <ele>663</ele>
        <time>2011-04-10T20:29:23Z</time>
      </trkpt>
      <trkpt lat="45.89289" lon="3.68305">
        <ele>661</ele>
        <time>2011-04-10T20:29:23Z</time>
      </trkpt>
      <trkpt lat="45.89335" lon="3.68256">
        <ele>663</ele>
        <time>2011-04-10T20:29:23Z</time>
      </trkpt>
      <trkpt lat="45.89385" lon="3.6826">
        <ele>667</ele>
        <time>2011-04-10T20:29:23Z</time>
      </trkpt>
      <trkpt lat="45.89491" lon="3.68237">
        <ele>675</ele>
        <time>2011-04-10T20:29:23Z</time>
      </trkpt>
      <trkpt lat="45.89596" lon="3.68185">
        <ele>682</ele>
        <time>2011-04-10T20:29:23Z</time>
      </trkpt>
      <trkpt lat="45.89663" lon="3.68119">
        <ele>697</ele>
        <time>2011-04-10T20:29:23Z</time>
      </trkpt>
      <trkpt lat="45.89685" lon="3.68045">
        <ele>701</ele>
        <time>2011-04-10T20:29:23Z</time>
      </trkpt>
      <trkpt lat="45.89733" lon="3.67932">
        <ele>711</ele>
        <time>2011-04-10T20:29:23Z</time>
      </trkpt>
      <trkpt lat="45.89748" lon="3.67825">
        <ele>720</ele>
        <time>2011-04-10T20:29:23Z</time>
      </trkpt>
      <trkpt lat="45.89748" lon="3.67747">
        <ele>722</ele>
        <time>2011-04-10T20:29:23Z</time>
      </trkpt>
      <trkpt lat="45.89787" lon="3.67735">
        <ele>723</ele>
        <time>2011-04-10T20:29:23Z</time>
      </trkpt>
      <trkpt lat="45.8981" lon="3.67842">
        <ele>723</ele>
        <time>2011-04-10T20:29:23Z</time>
      </trkpt>
      <trkpt lat="45.89853" lon="3.67933">
        <ele>726</ele>
        <time>2011-04-10T20:29:23Z</time>
      </trkpt>
      <trkpt lat="45.89936" lon="3.68003">
        <ele>727</ele>
        <time>2011-04-10T20:29:23Z</time>
      </trkpt>
      <trkpt lat="45.90003" lon="3.68072">
        <ele>721</ele>
        <time>2011-04-10T20:29:23Z</time>
      </trkpt>
      <trkpt lat="45.90024" lon="3.68129">
        <ele>714</ele>
        <time>2011-04-10T20:29:23Z</time>
      </trkpt>
      <trkpt lat="45.90019" lon="3.68239">
        <ele>725</ele>
        <time>2011-04-10T20:29:23Z</time>
      </trkpt>
      <trkpt lat="45.90027" lon="3.68287">
        <ele>732</ele>
        <time>2011-04-10T20:29:23Z</time>
      </trkpt>
      <trkpt lat="45.89991" lon="3.68365">
        <ele>738</ele>
        <time>2011-04-10T20:29:23Z</time>
      </trkpt>
      <trkpt lat="45.8997" lon="3.68523">
        <ele>749</ele>
        <time>2011-04-10T20:29:23Z</time>
      </trkpt>
      <trkpt lat="45.89947" lon="3.68633">
        <ele>754</ele>
        <time>2011-04-10T20:29:23Z</time>
      </trkpt>
      <trkpt lat="45.89897" lon="3.68779">
        <ele>758</ele>
        <time>2011-04-10T20:29:23Z</time>
      </trkpt>
      <trkpt lat="45.89997" lon="3.68725">
        <ele>773</ele>
        <time>2011-04-10T20:29:23Z</time>
      </trkpt>
      <trkpt lat="45.90032" lon="3.68705">
        <ele>779</ele>
        <time>2011-04-10T20:29:23Z</time>
      </trkpt>
      <trkpt lat="45.90088" lon="3.68582">
        <ele>785</ele>
        <time>2011-04-10T20:29:23Z</time>
      </trkpt>
      <trkpt lat="45.90141" lon="3.68522">
        <ele>789</ele>
        <time>2011-04-10T20:29:23Z</time>
      </trkpt>
      <trkpt lat="45.90194" lon="3.68469">
        <ele>796</ele>
        <time>2011-04-10T20:29:23Z</time>
      </trkpt>
      <trkpt lat="45.90212" lon="3.68414">
        <ele>799</ele>
        <time>2011-04-10T20:29:23Z</time>
      </trkpt>
      <trkpt lat="45.90248" lon="3.68336">
        <ele>801</ele>
        <time>2011-04-10T20:29:23Z</time>
      </trkpt>
      <trkpt lat="45.90298" lon="3.68297">
        <ele>806</ele>
        <time>2011-04-10T20:29:23Z</time>
      </trkpt>
      <trkpt lat="45.90438" lon="3.68196">
        <ele>818</ele>
        <time>2011-04-10T20:29:23Z</time>
      </trkpt>
      <trkpt lat="45.90519" lon="3.68137">
        <ele>824</ele>
        <time>2011-04-10T20:29:23Z</time>
      </trkpt>
      <trkpt lat="45.90554" lon="3.68076">
        <ele>824</ele>
        <time>2011-04-10T20:29:23Z</time>
      </trkpt>
      <trkpt lat="45.90589" lon="3.68027">
        <ele>827</ele>
        <time>2011-04-10T20:29:23Z</time>
      </trkpt>
      <trkpt lat="45.90705" lon="3.67895">
        <ele>834</ele>
        <time>2011-04-10T20:29:23Z</time>
      </trkpt>
      <trkpt lat="45.90865" lon="3.67813">
        <ele>844</ele>
        <time>2011-04-10T20:29:23Z</time>
      </trkpt>
      <trkpt lat="45.90972" lon="3.67753">
        <ele>848</ele>
        <time>2011-04-10T20:29:23Z</time>
      </trkpt>
      <trkpt lat="45.90966" lon="3.67725">
        <ele>846</ele>
        <time>2011-04-10T20:29:23Z</time>
      </trkpt>
      <trkpt lat="45.90894" lon="3.6768">
        <ele>836</ele>
        <time>2011-04-10T20:29:23Z</time>
      </trkpt>
      <trkpt lat="45.90836" lon="3.67629">
        <ele>822</ele>
        <time>2011-04-10T20:29:23Z</time>
      </trkpt>
      <trkpt lat="45.90817" lon="3.67583">
        <ele>817</ele>
        <time>2011-04-10T20:29:23Z</time>
      </trkpt>
      <trkpt lat="45.90825" lon="3.67517">
        <ele>812</ele>
        <time>2011-04-10T20:29:23Z</time>
      </trkpt>
      <trkpt lat="45.90827" lon="3.67453">
        <ele>803</ele>
        <time>2011-04-10T20:29:23Z</time>
      </trkpt>
      <trkpt lat="45.9084" lon="3.67395">
        <ele>798</ele>
        <time>2011-04-10T20:29:23Z</time>
      </trkpt>
      <trkpt lat="45.90917" lon="3.67341">
        <ele>800</ele>
        <time>2011-04-10T20:29:23Z</time>
      </trkpt>
      <trkpt lat="45.90973" lon="3.67342">
        <ele>804</ele>
        <time>2011-04-10T20:29:23Z</time>
      </trkpt>
      <trkpt lat="45.91038" lon="3.6735">
        <ele>806</ele>
        <time>2011-04-10T20:29:23Z</time>
      </trkpt>
      <trkpt lat="45.91047" lon="3.67349">
        <ele>805</ele>
        <time>2011-04-10T20:29:23Z</time>
      </trkpt>
      <trkpt lat="45.91028" lon="3.67311">
        <ele>797</ele>
        <time>2011-04-10T20:29:23Z</time>
      </trkpt>
      <trkpt lat="45.91163" lon="3.67255">
        <ele>775</ele>
        <time>2011-04-10T20:29:23Z</time>
      </trkpt>
      <trkpt lat="45.91205" lon="3.67238">
        <ele>768</ele>
        <time>2011-04-10T20:29:23Z</time>
      </trkpt>
      <trkpt lat="45.91274" lon="3.67271">
        <ele>767</ele>
        <time>2011-04-10T20:29:23Z</time>
      </trkpt>
      <trkpt lat="45.91322" lon="3.67272">
        <ele>761</ele>
        <time>2011-04-10T20:29:23Z</time>
      </trkpt>
      <trkpt lat="45.91441" lon="3.67234">
        <ele>755</ele>
        <time>2011-04-10T20:29:23Z</time>
      </trkpt>
      <trkpt lat="45.91434" lon="3.67208">
        <ele>760</ele>
        <time>2011-04-10T20:29:23Z</time>
      </trkpt>
      <trkpt lat="45.91359" lon="3.67189">
        <ele>745</ele>
        <time>2011-04-10T20:29:23Z</time>
      </trkpt>
      <trkpt lat="45.91332" lon="3.67174">
        <ele>742</ele>
        <time>2011-04-10T20:29:23Z</time>
      </trkpt>
      <trkpt lat="45.91313" lon="3.67115">
        <ele>741</ele>
        <time>2011-04-10T20:29:23Z</time>
      </trkpt>
      <trkpt lat="45.91368" lon="3.67012">
        <ele>766</ele>
        <time>2011-04-10T20:29:23Z</time>
      </trkpt>
      <trkpt lat="45.91418" lon="3.66961">
        <ele>779</ele>
        <time>2011-04-10T20:29:23Z</time>
      </trkpt>
      <trkpt lat="45.91458" lon="3.66935">
        <ele>786</ele>
        <time>2011-04-10T20:29:23Z</time>
      </trkpt>
      <trkpt lat="45.91522" lon="3.6685">
        <ele>785</ele>
        <time>2011-04-10T20:29:23Z</time>
      </trkpt>
      <trkpt lat="45.91587" lon="3.66772">
        <ele>782</ele>
        <time>2011-04-10T20:29:23Z</time>
      </trkpt>
      <trkpt lat="45.91632" lon="3.66755">
        <ele>787</ele>
        <time>2011-04-10T20:29:23Z</time>
      </trkpt>
      <trkpt lat="45.91671" lon="3.66753">
        <ele>794</ele>
        <time>2011-04-10T20:29:23Z</time>
      </trkpt>
      <trkpt lat="45.91727" lon="3.66708">
        <ele>800</ele>
        <time>2011-04-10T20:29:23Z</time>
      </trkpt>
      <trkpt lat="45.91763" lon="3.6671">
        <ele>806</ele>
        <time>2011-04-10T20:29:23Z</time>
      </trkpt>
      <trkpt lat="45.9185" lon="3.66688">
        <ele>814</ele>
        <time>2011-04-10T20:29:23Z</time>
      </trkpt>
      <trkpt lat="45.91992" lon="3.66618">
        <ele>819</ele>
        <time>2011-04-10T20:29:23Z</time>
      </trkpt>
      <trkpt lat="45.9213" lon="3.66544">
        <ele>830</ele>
        <time>2011-04-10T20:29:23Z</time>
      </trkpt>
      <trkpt lat="45.92192" lon="3.6649">
        <ele>836</ele>
        <time>2011-04-10T20:29:23Z</time>
      </trkpt>
      <trkpt lat="45.92222" lon="3.66417">
        <ele>841</ele>
        <time>2011-04-10T20:29:23Z</time>
      </trkpt>
      <trkpt lat="45.92265" lon="3.66342">
        <ele>845</ele>
        <time>2011-04-10T20:29:23Z</time>
      </trkpt>
      <trkpt lat="45.92308" lon="3.663">
        <ele>844</ele>
        <time>2011-04-10T20:29:23Z</time>
      </trkpt>
      <trkpt lat="45.92313" lon="3.66361">
        <ele>843</ele>
        <time>2011-04-10T20:29:23Z</time>
      </trkpt>
      <trkpt lat="45.92306" lon="3.66435">
        <ele>845</ele>
        <time>2011-04-10T20:29:23Z</time>
      </trkpt>
      <trkpt lat="45.92298" lon="3.66503">
        <ele>849</ele>
        <time>2011-04-10T20:29:23Z</time>
      </trkpt>
      <trkpt lat="45.92355" lon="3.66535">
        <ele>844</ele>
        <time>2011-04-10T20:29:23Z</time>
      </trkpt>
      <trkpt lat="45.92373" lon="3.66554">
        <ele>840</ele>
        <time>2011-04-10T20:29:23Z</time>
      </trkpt>
      <trkpt lat="45.92367" lon="3.66609">
        <ele>840</ele>
        <time>2011-04-10T20:29:23Z</time>
      </trkpt>
      <trkpt lat="45.92361" lon="3.66693">
        <ele>838</ele>
        <time>2011-04-10T20:29:23Z</time>
      </trkpt>
      <trkpt lat="45.92367" lon="3.66757">
        <ele>840</ele>
        <time>2011-04-10T20:29:23Z</time>
      </trkpt>
      <trkpt lat="45.92407" lon="3.66749">
        <ele>837</ele>
        <time>2011-04-10T20:29:23Z</time>
      </trkpt>
      <trkpt lat="45.92433" lon="3.66728">
        <ele>833</ele>
        <time>2011-04-10T20:29:23Z</time>
      </trkpt>
      <trkpt lat="45.92471" lon="3.6675">
        <ele>834</ele>
        <time>2011-04-10T20:29:23Z</time>
      </trkpt>
      <trkpt lat="45.92482" lon="3.66752">
        <ele>834</ele>
        <time>2011-04-10T20:29:23Z</time>
      </trkpt>
      <trkpt lat="45.92505" lon="3.66656">
        <ele>833</ele>
        <time>2011-04-10T20:29:23Z</time>
      </trkpt>
      <trkpt lat="45.92513" lon="3.66545">
        <ele>831</ele>
        <time>2011-04-10T20:29:23Z</time>
      </trkpt>
      <trkpt lat="45.92544" lon="3.66444">
        <ele>828</ele>
        <time>2011-04-10T20:29:23Z</time>
      </trkpt>
      <trkpt lat="45.92579" lon="3.66393">
        <ele>829</ele>
        <time>2011-04-10T20:29:23Z</time>
      </trkpt>
      <trkpt lat="45.92585" lon="3.66364">
        <ele>827</ele>
        <time>2011-04-10T20:29:23Z</time>
      </trkpt>
      <trkpt lat="45.92599" lon="3.66276">
        <ele>822</ele>
        <time>2011-04-10T20:29:23Z</time>
      </trkpt>
      <trkpt lat="45.92621" lon="3.66148">
        <ele>825</ele>
        <time>2011-04-10T20:29:23Z</time>
      </trkpt>
      <trkpt lat="45.92639" lon="3.66045">
        <ele>818</ele>
        <time>2011-04-10T20:29:23Z</time>
      </trkpt>
      <trkpt lat="45.92623" lon="3.66006">
        <ele>813</ele>
        <time>2011-04-10T20:29:23Z</time>
      </trkpt>
      <trkpt lat="45.92588" lon="3.65979">
        <ele>802</ele>
        <time>2011-04-10T20:29:23Z</time>
      </trkpt>
      <trkpt lat="45.92547" lon="3.65957">
        <ele>795</ele>
        <time>2011-04-10T20:29:23Z</time>
      </trkpt>
      <trkpt lat="45.92587" lon="3.65879">
        <ele>790</ele>
        <time>2011-04-10T20:29:23Z</time>
      </trkpt>
      <trkpt lat="45.92633" lon="3.6585">
        <ele>787</ele>
        <time>2011-04-10T20:29:23Z</time>
      </trkpt>
      <trkpt lat="45.92679" lon="3.65862">
        <ele>786</ele>
        <time>2011-04-10T20:29:23Z</time>
      </trkpt>
      <trkpt lat="45.92708" lon="3.65884">
        <ele>786</ele>
        <time>2011-04-10T20:29:23Z</time>
      </trkpt>
      <trkpt lat="45.9274" lon="3.65933">
        <ele>788</ele>
        <time>2011-04-10T20:29:23Z</time>
      </trkpt>
      <trkpt lat="45.9276" lon="3.65959">
        <ele>787</ele>
        <time>2011-04-10T20:29:23Z</time>
      </trkpt>
      <trkpt lat="45.92781" lon="3.65907">
        <ele>794</ele>
        <time>2011-04-10T20:29:23Z</time>
      </trkpt>
      <trkpt lat="45.92777" lon="3.6579">
        <ele>791</ele>
        <time>2011-04-10T20:29:23Z</time>
      </trkpt>
      <trkpt lat="45.9276" lon="3.657">
        <ele>789</ele>
        <time>2011-04-10T20:29:23Z</time>
      </trkpt>
      <trkpt lat="45.92721" lon="3.65581">
        <ele>791</ele>
        <time>2011-04-10T20:29:23Z</time>
      </trkpt>
      <trkpt lat="45.92657" lon="3.65478">
        <ele>783</ele>
        <time>2011-04-10T20:29:23Z</time>
      </trkpt>
      <trkpt lat="45.92625" lon="3.65385">
        <ele>771</ele>
        <time>2011-04-10T20:29:23Z</time>
      </trkpt>
      <trkpt lat="45.92579" lon="3.65368">
        <ele>763</ele>
        <time>2011-04-10T20:29:23Z</time>
      </trkpt>
      <trkpt lat="45.92572" lon="3.65308">
        <ele>761</ele>
        <time>2011-04-10T20:29:23Z</time>
      </trkpt>
      <trkpt lat="45.92575" lon="3.65244">
        <ele>766</ele>
        <time>2011-04-10T20:29:23Z</time>
      </trkpt>
      <trkpt lat="45.92566" lon="3.65184">
        <ele>770</ele>
        <time>2011-04-10T20:29:23Z</time>
      </trkpt>
      <trkpt lat="45.92573" lon="3.65092">
        <ele>772</ele>
        <time>2011-04-10T20:29:23Z</time>
      </trkpt>
      <trkpt lat="45.92599" lon="3.65003">
        <ele>768</ele>
        <time>2011-04-10T20:29:23Z</time>
      </trkpt>
      <trkpt lat="45.92642" lon="3.64944">
        <ele>768</ele>
        <time>2011-04-10T20:29:23Z</time>
      </trkpt>
      <trkpt lat="45.92629" lon="3.64921">
        <ele>769</ele>
        <time>2011-04-10T20:29:23Z</time>
      </trkpt>
      <trkpt lat="45.92622" lon="3.64902">
        <ele>770</ele>
        <time>2011-04-10T20:29:23Z</time>
      </trkpt>
      <trkpt lat="45.92667" lon="3.6489">
        <ele>775</ele>
        <time>2011-04-10T20:29:23Z</time>
      </trkpt>
      <trkpt lat="45.92706" lon="3.64854">
        <ele>783</ele>
        <time>2011-04-10T20:29:23Z</time>
      </trkpt>
      <trkpt lat="45.92733" lon="3.64808">
        <ele>788</ele>
        <time>2011-04-10T20:29:23Z</time>
      </trkpt>
      <trkpt lat="45.92783" lon="3.64801">
        <ele>791</ele>
        <time>2011-04-10T20:29:23Z</time>
      </trkpt>
      <trkpt lat="45.92807" lon="3.64792">
        <ele>792</ele>
        <time>2011-04-10T20:29:23Z</time>
      </trkpt>
      <trkpt lat="45.92876" lon="3.64732">
        <ele>792</ele>
        <time>2011-04-10T20:29:23Z</time>
      </trkpt>
      <trkpt lat="45.92896" lon="3.64631">
        <ele>792</ele>
        <time>2011-04-10T20:29:23Z</time>
      </trkpt>
      <trkpt lat="45.92908" lon="3.64567">
        <ele>790</ele>
        <time>2011-04-10T20:29:23Z</time>
      </trkpt>
      <trkpt lat="45.92969" lon="3.64502">
        <ele>790</ele>
        <time>2011-04-10T20:29:23Z</time>
      </trkpt>
      <trkpt lat="45.93019" lon="3.64465">
        <ele>789</ele>
        <time>2011-04-10T20:29:23Z</time>
      </trkpt>
      <trkpt lat="45.93091" lon="3.64441">
        <ele>790</ele>
        <time>2011-04-10T20:29:23Z</time>
      </trkpt>
      <trkpt lat="45.93132" lon="3.64406">
        <ele>787</ele>
        <time>2011-04-10T20:29:23Z</time>
      </trkpt>
      <trkpt lat="45.93113" lon="3.64346">
        <ele>786</ele>
        <time>2011-04-10T20:29:23Z</time>
      </trkpt>
      <trkpt lat="45.93098" lon="3.64304">
        <ele>787</ele>
        <time>2011-04-10T20:29:23Z</time>
      </trkpt>
      <trkpt lat="45.93107" lon="3.6423">
        <ele>791</ele>
        <time>2011-04-10T20:29:23Z</time>
      </trkpt>
      <trkpt lat="45.93079" lon="3.64092">
        <ele>798</ele>
        <time>2011-04-10T20:29:23Z</time>
      </trkpt>
      <trkpt lat="45.93083" lon="3.6401">
        <ele>805</ele>
        <time>2011-04-10T20:29:23Z</time>
      </trkpt>
      <trkpt lat="45.93096" lon="3.63902">
        <ele>808</ele>
        <time>2011-04-10T20:29:23Z</time>
      </trkpt>
      <trkpt lat="45.93094" lon="3.63794">
        <ele>815</ele>
        <time>2011-04-10T20:29:23Z</time>
      </trkpt>
      <trkpt lat="45.93082" lon="3.63726">
        <ele>819</ele>
        <time>2011-04-10T20:29:23Z</time>
      </trkpt>
      <trkpt lat="45.93154" lon="3.63557">
        <ele>819</ele>
        <time>2011-04-10T20:29:23Z</time>
      </trkpt>
      <trkpt lat="45.93285" lon="3.63465">
        <ele>808</ele>
        <time>2011-04-10T20:29:23Z</time>
      </trkpt>
      <trkpt lat="45.93381" lon="3.63406">
        <ele>800</ele>
        <time>2011-04-10T20:29:23Z</time>
      </trkpt>
      <trkpt lat="45.93439" lon="3.63372">
        <ele>794</ele>
        <time>2011-04-10T20:29:23Z</time>
      </trkpt>
      <trkpt lat="45.93531" lon="3.63405">
        <ele>789</ele>
        <time>2011-04-10T20:29:23Z</time>
      </trkpt>
      <trkpt lat="45.93582" lon="3.63418">
        <ele>790</ele>
        <time>2011-04-10T20:29:23Z</time>
      </trkpt>
      <trkpt lat="45.93619" lon="3.63331">
        <ele>791</ele>
        <time>2011-04-10T20:29:23Z</time>
      </trkpt>
      <trkpt lat="45.93664" lon="3.63311">
        <ele>793</ele>
        <time>2011-04-10T20:29:23Z</time>
      </trkpt>
      <trkpt lat="45.93794" lon="3.63223">
        <ele>792</ele>
        <time>2011-04-10T20:29:23Z</time>
      </trkpt>
      <trkpt lat="45.93841" lon="3.63188">
        <ele>789</ele>
        <time>2011-04-10T20:29:23Z</time>
      </trkpt>
      <trkpt lat="45.9387" lon="3.63157">
        <ele>787</ele>
        <time>2011-04-10T20:29:23Z</time>
      </trkpt>
      <trkpt lat="45.93878" lon="3.63144">
        <ele>785</ele>
        <time>2011-04-10T20:29:23Z</time>
      </trkpt>
      <trkpt lat="45.9388" lon="3.63144">
        <ele>785</ele>
        <time>2011-04-10T20:29:23Z</time>
      </trkpt>
    </trkseg>
  </trk>
</gpx>